Temperature
6 6 6 6 6 6 6 6 6 6 6 6 6 6 6 6 6 5 5 5 5 5 5 5 5 5 5 5 5 5 5 5 5 4 4 4 4 4
5 5 5 5 5 5 5 5 5 5 5 6 6 6 5 5 5 5 5 5 5 5 5 5 5 5 5 5 5 4 4 4 4 4 4 4 3 3
5 5 5 5 5 5 5 5 5 5 5 5 5 5 5 5 5 5 4 4 4 4 4 4 4 4 4 4 4 4 4 4 4 3 3 3 3 3
4 4 4 4 4 4 4 4 4 4 4 4 5 4 4 4 4 4 4 4 4 4 4 4 4 4 4 4 3 3 3 3 3 3 3 3 2 2
4 4 4 4 4 4 4 4 4 4 4 4 4 4 4 4 4 4 4 3 3 3 3 3 3 3 3 3 3 3 2 2 2 2 2 2 2 2
3 3 3 3 3 3 3 3 3 3 3 3 3 3 3 3 3 3 3 3 3 3 3 3 3 2 2 2 2 2 2 2 2 2 2 1 1 1
3 3 3 3 3 3 3 3 3 3 3 3 3 3 3 3 3 3 2 2 2 2 2 2 2 2 2 2 2 2 2 1 1 1 1 1 1 1
2 2 2 2 2 2 2 2 2 2 2 2 2 2 2 2 2 2 2 2 1 2 2 2 1 1 2 1 1 1 1 1 1 1 1 0 0 0
2 2 2 2 2 2 2 2 2 2 2 2 2 2 2 2 2 1 1 1 1 1 1 1 1 1 1 1 1 1 1 1 0 0 -0 -0 -0 -1
1 1 1 1 1 1 1 1 1 1 1 1 1 1 1 1 1 1 1 0 0 0 0 0 0 0 1 0 0 0 -0 -0 -0 -0 -1 -1 -1 -1
1 1 0 1 1 1 1 1 1 1 1 1 0 0 0 0 0 -0 -0 -0 -0 -0 -0 -1 -0 -1 -0 -0 -0 -0 -1 -1 -1 -1 -1 -1 -1 -2
-0 -0 0 0 0 -0 -0 -0 0 0 0 -0 -0 -0 -0 -0 -1 -1 -1 -1 -1 -1 -1 -1 -1 -2 -2 -1 -1 -1 -1 -1 -2 -2 -2 -2 -2 -2
-1 -1 -0 -1 -1 -1 -1 -1 -1 -1 -1 -1 -1 -1 -1 -1 -1 -1 -1 -2 -2 -2 -2 -2 -2 -2 -3 -2 -2 -2 -2 -2 -2 -2 -2 -2 -3 -3
-1 -1 -1 -1 -1 -1 -1 -1 -1 -1 -1 -1 -1 -1 -1 -2 -2 -2 -2 -2 -2 -2 -2 -3 -3 -3 -3 -3 -3 -2 -2 -2 -3 -3 -3 -3 -3 -3
-2 -2 -2 -2 -2 -2 -2 -2 -2 -2 -2 -2 -2 -2 -2 -2 -2 -2 -3 -3 -3 -3 -3 -3 -3 -4 -4 -4 -3 -3 -3 -3 -3 -3 -4 -4 -4 -4
-2 -2 -2 -2 -2 -2 -2 -3 -3 -3 -3 -3 -3 -3 -3 -3 -3 -3 -3 -3 -3 -3 -3 -4 -4 -4 -4 -4 -4 -4 -4 -4 -4 -4 -4 -4 -4 -4
-3 -3 -3 -3 -3 -3 -3 -3 -3 -3 -3 -3 -3 -3 -3 -3 -3 -4 -4 -4 -4 -4 -4 -4 -4 -4 -4 -5 -4 -4 -4 -4 -5 -5 -5 -5 -4 -5
-3 -3 -3 -3 -3 -3 -4 -4 -4 -4 -4 -4 -4 -4 -4 -4 -4 -4 -4 -4 -4 -4 -5 -5 -5 -5 -5 -5 -5 -5 -5 -5 -5 -5 -5 -5 -5 -5
-4 -4 -4 -4 -4 -4 -4 -4 -4 -4 -4 -5 -5 -5 -5 -5 -5 -5 -5 -5 -5 -5 -5 -5 -5 -6 -6 -6 -5 -5 -6 -6 -6 -6 -6 -6 -6 -5
-4 -5 -5 -5 -5 -5 -5 -5 -5 -5 -5 -5 -5 -5 -5 -5 -5 -5 -5 -6 -6 -6 -6 -6 -6 -6 -6 -6 -6 -6 -6 -6 -6 -6 -6 -6 -6 -6
-5 -5 -5 -5 -5 -5 -5 -5 -5 -5 -5 -6 -6 -6 -6 -6 -6 -6 -6 -6 -6 -6 -6 -6 -6 -6 -7 -7 -7 -6 -6 -7 -7 -7 -7 -7 -7 -7
-6 -6 -6 -6 -6 -6 -6 -6 -6 -6 -6 -6 -6 -6 -6 -6 -7 -7 -7 -7 -7 -7 -7 -7 -7 -7 -7 -7 -7 -7 -7 -7 -7 -7 -7 -7 -8 -8
-6 -6 -6 -6 -6 -6 -6 -6 -6 -6 -6 -7 -7 -7 -7 -7 -7 -7 -7 -7 -7 -7 -7 -7 -7 -7 -7 -7 -8 -7 -7 -7 -7 -7 -7 -7 -8 -8
Wind_Speed
4 4 3 3 3 2 3 3 4 4 5 5 4 4 7 8 9 9 9 9 9 9 9 7 7 7 7 6 6 6 7 7 8 8 9 9 9 9
3 3 3 2 2 2 3 3 3 4 4 4 4 3 4 6 9 9 9 9 9 9 9 8 8 8 8 8 7 7 8 8 9 10 10 10 10 11
3 4 4 3 3 3 2 2 2 2 4 3 2 1 3 4 5 7 8 9 9 9 10 9 9 9 9 9 9 9 9 9 10 11 11 11 11 11
4 4 4 3 4 3 3 3 3 3 3 4 2 2 3 4 4 4 5 7 8 9 9 9 9 9 9 9 9 9 10 10 9 10 11 11 11 11
4 5 5 4 4 3 3 4 3 2 2 3 3 2 2 2 2 2 3 4 6 7 7 8 8 9 9 9 10 10 10 10 10 10 11 11 11 12
3 4 4 5 5 5 4 4 3 3 2 2 2 2 2 1 1 2 2 2 3 4 6 7 7 8 9 10 11 11 11 11 11 10 11 12 12 12
3 3 3 4 5 5 4 4 4 3 3 2 2 2 2 2 3 2 3 2 2 3 2 4 5 6 8 9 10 11 11 11 11 11 11 12 12 13
3 3 3 4 4 5 5 6 6 5 5 4 3 4 4 4 3 3 2 1 3 2 2 3 3 4 7 9 10 11 11 11 11 11 11 11 12 13
3 2 2 2 2 3 3 4 4 6 6 6 5 5 5 5 4 4 4 4 4 3 2 4 2 4 7 9 11 12 12 12 11 11 11 12 12 12
2 3 3 3 3 3 3 3 3 4 5 4 5 6 5 5 6 6 5 3 2 2 3 4 3 3 4 8 11 12 12 11 11 12 12 12 12 12
2 2 3 3 3 3 3 3 3 4 5 5 6 5 6 6 5 3 2 2 3 3 2 3 2 2 3 4 8 10 10 10 11 12 12 12 11 11
2 2 3 3 3 3 3 4 5 4 3 3 3 4 4 5 6 5 5 4 3 3 3 3 2 1 3 3 4 6 7 9 11 12 12 11 10 8
2 3 3 4 4 4 4 4 5 4 3 3 2 2 2 2 3 4 4 4 4 4 3 3 2 3 3 3 3 4 5 5 7 9 10 10 10 8
3 3 3 4 4 4 4 4 3 2 1 2 2 2 2 2 2 3 4 4 5 5 6 5 3 4 3 4 4 3 3 5 5 5 6 8 9 11
3 3 3 4 4 3 4 3 2 1 2 2 3 3 3 3 2 1 2 2 2 3 4 5 4 3 4 5 4 3 3 3 4 4 4 5 5 6
2 3 3 3 2 2 2 2 1 2 2 3 3 2 1 1 2 2 2 2 2 2 2 4 5 4 4 4 4 4 3 3 3 4 4 5 6 7
2 1 1 1 1 1 1 1 1 1 2 1 2 2 2 2 2 2 2 2 3 3 3 1 1 3 4 4 4 5 4 4 4 3 3 5 5 7
1 1 2 2 2 2 2 2 2 2 2 2 2 2 2 3 3 2 2 2 3 3 3 2 1 2 2 3 6 5 4 4 3 3 3 4 6 6
1 1 2 2 2 2 2 2 2 2 2 2 2 2 2 3 3 3 3 2 3 3 3 2 2 2 3 4 3 5 4 3 3 3 4 4 6 6
1 2 2 2 2 2 2 2 2 2 1 2 2 2 2 2 3 3 3 3 3 3 3 2 3 4 5 4 3 3 5 4 3 4 4 4 5 8
2 1 2 2 2 2 2 2 2 2 2 2 2 2 2 2 3 3 3 4 3 3 3 4 4 4 2 1 2 3 3 5 6 4 4 4 5 4
2 2 2 2 2 2 2 2 2 2 2 2 2 2 2 2 3 3 3 3 3 3 4 3 2 1 2 3 5 4 4 4 6 8 8 8 4 4
2 2 2 2 2 2 2 2 3 3 3 3 2 2 2 3 3 3 3 3 3 3 3 3 2 2 3 3 4 4 5 5 4 4 5 7 9 11
Wind_Direction
215 213 214 213 202 193 184 185 181 217 242 238 239 233 220 220 224 219 222 229 227 232 238 241 235 233 241 243 243 228 224 223 226 231 236 241 246 253
217 214 221 218 209 199 202 205 202 205 235 234 228 240 219 224 225 222 226 230 231 234 237 239 234 231 233 237 240 238 232 228 230 235 240 244 248 253
223 220 227 215 208 209 207 206 209 205 234 253 238 242 212 221 222 221 225 225 230 233 235 236 235 234 235 237 238 241 236 236 238 240 244 247 251 255
223 223 229 219 217 215 212 219 220 214 216 242 251 242 234 223 215 218 224 226 228 232 233 239 241 239 238 237 239 242 239 238 242 245 246 249 252 256
219 222 226 216 223 225 219 220 222 222 217 219 242 252 253 241 228 248 230 227 236 234 236 241 243 246 246 243 242 243 242 241 243 247 248 249 253 257
224 224 224 220 223 218 220 222 214 213 212 206 226 244 250 242 195 233 261 243 245 240 243 245 249 252 251 246 244 245 245 248 247 250 251 251 252 255
234 231 232 234 232 221 222 217 206 211 210 216 227 233 231 219 220 212 237 258 272 243 240 244 246 249 252 252 249 246 247 248 248 250 254 256 256 257
233 243 241 236 241 235 230 218 207 208 213 216 227 227 234 228 212 209 207 226 267 241 209 253 228 246 249 251 253 253 252 251 250 252 256 259 262 262
226 233 245 247 239 229 233 232 230 228 217 213 224 230 227 219 204 211 213 221 237 225 207 254 239 250 252 253 258 257 253 251 252 255 257 260 262 262
230 226 225 238 232 222 221 235 248 251 239 230 228 232 228 212 206 211 214 228 263 243 200 239 246 250 261 256 257 256 251 250 253 256 259 262 262 264
239 232 222 231 247 235 220 232 254 270 264 246 246 244 238 227 208 184 192 205 251 254 213 216 241 267 276 264 254 254 250 251 255 259 262 264 266 268
252 250 250 250 249 233 225 230 241 256 255 260 258 255 242 230 216 209 202 211 233 243 212 197 219 228 277 265 249 248 250 257 260 261 263 264 265 268
245 251 257 266 260 247 245 241 250 254 238 235 239 247 239 228 221 220 212 209 222 238 213 193 218 219 235 272 278 253 242 248 257 264 264 261 263 268
243 248 254 263 259 258 256 268 273 273 230 223 227 238 241 241 236 226 225 232 237 238 219 204 216 221 234 263 271 260 244 247 245 249 256 263 269 272
252 257 265 267 262 252 257 260 252 232 224 230 233 239 240 231 217 229 244 251 276 265 232 222 217 228 231 243 255 256 268 257 238 234 246 256 261 266
271 276 278 272 263 270 264 242 230 232 235 242 249 245 236 227 231 234 240 244 265 285 272 237 225 219 236 248 251 256 246 243 242 251 261 268 267 263
248 264 280 265 253 260 259 253 249 253 263 259 249 239 232 234 249 243 237 242 243 250 267 278 277 255 240 237 251 250 249 253 249 250 254 274 274 265
239 229 241 244 244 243 245 252 253 247 250 249 237 229 229 231 240 246 243 239 248 253 254 257 285 322 318 282 233 236 240 248 253 250 242 263 279 276
232 235 241 243 249 245 248 251 257 253 246 242 241 235 233 234 232 234 231 236 246 249 249 237 225 227 269 282 273 219 222 251 262 265 257 252 268 275
280 256 256 255 253 253 253 261 260 251 246 245 243 237 231 230 231 232 230 230 236 245 252 242 227 223 234 251 266 271 243 235 243 259 270 273 271 276
308 294 278 267 267 262 258 253 250 252 250 244 238 236 234 231 236 237 238 240 246 239 244 253 248 250 239 250 273 279 275 252 248 250 256 273 280 280
307 298 293 279 267 260 256 247 244 243 244 245 239 236 236 237 238 238 234 237 243 244 253 262 255 239 224 239 257 271 284 294 285 277 265 255 252 253
310 299 290 282 270 257 252 247 247 245 239 232 229 232 232 239 244 244 242 241 242 246 252 261 262 250 245 242 253 266 278 289 296 299 292 283 274 272
Height
1501 1502 1503 1504 1506 1507 1509 1510 1511 1510 1510 1511 1513 1513 1515 1515 1516 1517 1518 1519 1520 1521 1522 1523 1524 1524 1525 1526 1527 1527 1527 1528 1529 1530 1531 1531 1531 1532
1497 1498 1499 1500 1502 1503 1505 1506 1507 1508 1507 1507 1509 1509 1510 1511 1512 1513 1514 1514 1515 1516 1517 1518 1519 1519 1520 1521 1522 1522 1522 1524 1524 1525 1526 1526 1526 1527
1492 1494 1495 1496 1498 1499 1500 1501 1502 1503 1503 1503 1505 1505 1506 1507 1507 1508 1509 1510 1510 1511 1512 1513 1514 1514 1515 1516 1516 1517 1517 1518 1519 1520 1520 1521 1521 1522
1488 1490 1491 1492 1493 1495 1496 1497 1498 1499 1499 1499 1500 1501 1502 1502 1503 1503 1504 1505 1506 1507 1507 1508 1509 1509 1510 1510 1511 1511 1512 1513 1514 1514 1515 1515 1516 1516
1484 1485 1487 1488 1489 1490 1491 1492 1493 1494 1495 1495 1495 1496 1497 1498 1498 1499 1499 1500 1501 1502 1502 1503 1504 1504 1504 1505 1505 1506 1507 1508 1508 1509 1509 1510 1510 1510
1480 1481 1482 1483 1484 1485 1486 1487 1489 1490 1490 1491 1491 1492 1492 1493 1494 1494 1494 1495 1496 1497 1497 1498 1499 1499 1499 1500 1500 1501 1502 1502 1502 1503 1503 1504 1504 1504
1476 1477 1478 1479 1480 1481 1482 1483 1484 1485 1485 1486 1486 1487 1487 1488 1489 1489 1490 1490 1491 1492 1492 1492 1493 1493 1494 1494 1495 1496 1496 1496 1496 1496 1497 1497 1498 1498
1472 1473 1474 1475 1476 1477 1478 1479 1480 1480 1480 1481 1481 1482 1482 1483 1484 1485 1485 1485 1485 1487 1486 1487 1488 1488 1488 1489 1489 1490 1490 1490 1490 1490 1491 1491 1491 1491
1468 1469 1470 1470 1471 1472 1473 1474 1475 1475 1476 1477 1476 1477 1478 1478 1479 1480 1480 1480 1480 1481 1482 1480 1482 1482 1483 1483 1483 1484 1484 1484 1484 1484 1484 1484 1484 1484
1465 1465 1466 1466 1467 1468 1469 1469 1469 1470 1471 1471 1472 1472 1473 1474 1474 1475 1475 1475 1475 1476 1477 1475 1476 1476 1477 1477 1477 1478 1478 1478 1478 1478 1478 1478 1478 1477
1461 1461 1462 1462 1463 1464 1464 1464 1464 1465 1466 1466 1467 1467 1468 1469 1469 1470 1469 1470 1469 1470 1471 1471 1470 1470 1470 1470 1471 1471 1471 1471 1471 1471 1471 1471 1471 1471
1457 1457 1458 1458 1459 1459 1459 1459 1459 1459 1460 1461 1461 1462 1462 1463 1464 1464 1464 1465 1464 1464 1465 1466 1465 1466 1464 1463 1465 1465 1465 1465 1465 1465 1465 1465 1465 1464
1453 1453 1453 1454 1454 1455 1455 1455 1454 1455 1455 1456 1456 1456 1457 1457 1458 1459 1459 1460 1459 1459 1460 1461 1460 1460 1460 1458 1458 1459 1459 1459 1459 1459 1459 1459 1459 1458
1450 1450 1450 1450 1450 1450 1450 1450 1450 1450 1450 1450 1450 1450 1451 1451 1452 1453 1454 1454 1455 1455 1455 1455 1455 1455 1455 1453 1452 1452 1453 1453 1453 1452 1452 1452 1452 1452
1446 1446 1446 1446 1446 1446 1446 1446 1446 1445 1445 1445 1445 1445 1446 1447 1447 1448 1448 1449 1449 1449 1449 1449 1450 1450 1450 1448 1447 1446 1446 1446 1446 1446 1446 1446 1445 1444
1443 1442 1442 1442 1442 1442 1442 1441 1441 1441 1440 1440 1441 1441 1441 1442 1442 1443 1443 1443 1443 1443 1444 1444 1444 1444 1443 1443 1442 1441 1440 1440 1440 1440 1440 1439 1439 1438
1439 1438 1438 1438 1437 1437 1437 1437 1437 1437 1436 1436 1436 1436 1437 1437 1437 1437 1438 1438 1438 1437 1438 1438 1439 1438 1438 1438 1437 1436 1435 1435 1435 1434 1434 1432 1432 1432
1435 1434 1434 1434 1433 1433 1433 1433 1433 1432 1432 1432 1432 1432 1432 1432 1433 1433 1433 1433 1433 1433 1433 1433 1433 1432 1432 1432 1432 1431 1430 1430 1429 1429 1428 1427 1426 1426
1431 1430 1430 1430 1430 1429 1429 1429 1428 1428 1428 1428 1428 1428 1428 1428 1428 1428 1428 1428 1428 1428 1428 1428 1428 1428 1427 1426 1426 1427 1426 1425 1424 1423 1423 1422 1420 1419
1427 1427 1426 1426 1426 1426 1425 1425 1425 1424 1424 1424 1424 1424 1424 1424 1424 1424 1424 1424 1424 1424 1424 1424 1424 1424 1423 1423 1421 1421 1422 1420 1419 1418 1417 1416 1415 1414
1424 1423 1423 1423 1422 1422 1422 1421 1421 1421 1420 1420 1420 1420 1420 1420 1420 1420 1420 1420 1420 1420 1419 1419 1419 1420 1419 1419 1418 1416 1417 1417 1415 1414 1412 1411 1409 1407
1420 1420 1419 1419 1419 1418 1418 1418 1417 1417 1417 1416 1416 1417 1417 1417 1416 1416 1416 1416 1416 1416 1415 1415 1415 1415 1415 1414 1413 1412 1412 1411 1411 1410 1409 1407 1405 1402
1417 1417 1416 1416 1415 1415 1414 1414 1414 1413 1413 1413 1413 1413 1413 1413 1413 1413 1413 1413 1413 1412 1412 1411 1411 1411 1410 1410 1409 1408 1407 1406 1405 1404 1404 1403 1402 1400